Location: Brno
(49.2000°N, 16.6330°E)
Time: 05:37:33
(UTC+02:00)

ISS - Visible Passes

Search period start: 26 September 2016 00:00
Search period end: 06 October 2016 00:00
Orbit: 401 x 409 km, 51.6° (Epoch: 26 September)

Date Brightness Start Highest point End Pass type
(mag) Time Alt. Az. Time Alt. Az. Time Alt. Az.
28 Sep -0.6 20:33:08 10° SSW 20:33:12 10° SSW 20:33:12 10° SSW visible
29 Sep -1.4 19:42:02 10° S 19:43:51 14° SE 19:43:51 14° SE visible
30 Sep -2.3 20:24:43 10° SW 20:27:00 34° S 20:27:00 34° S visible
01 Oct -2.2 19:33:01 10° SSW 19:35:50 27° SE 19:37:16 19° ESE visible
01 Oct -0.8 21:08:51 10° WSW 21:09:57 20° WSW 21:09:57 20° WSW visible
02 Oct -3.5 20:16:42 10° WSW 20:19:57 77° SSE 20:20:05 75° SE visible
03 Oct -3.0 19:24:41 10° SW 19:27:51 50° SSE 19:30:07 17° E visible
03 Oct -1.2 21:01:07 10° W 21:02:47 27° W 21:02:47 27° W visible
04 Oct -3.2 20:08:52 10° W 20:12:07 71° NNW 20:12:43 54° NE visible
05 Oct -3.4 19:16:40 10° WSW 19:19:55 86° SSE 19:22:35 15° ENE visible
05 Oct -1.4 20:53:21 10° W 20:55:14 29° WNW 20:55:14 29° WNW visible
